Presure
161 149 171 158 143 162 163 164 172 157 158 165 161 150 98 156 160 157 155 156 152 160 157 160 138 152 128 130 157 104 158 167 170 163 150 154 142 168 181 169 150 161 183
157 155 172 155 145 146 150 154 159 161 169 169 160 167 164 166 161 150 142 124 134 150 157 140 128 168 165 103 148 115 144 156 161 166 167 167 167 170 181 139 159 177 185
165 159 139 155 165 150 150 155 156 140 156 153 162 167 164 160 130 134 135 136 164 146 140 152 159 111 152 161 156 162 165 174 167 159 168 166 167 181 169 161 182 182 72
158 142 130 131 144 159 159 104 101 101 107 90 102 171 141 128 133 152 159 163 145 175 174 110 150 153 154 169 137 178 176 165 158 154 167 154 184 180 169 177 175 185 65
121 148 144 153 164 102 108 97 99 104 168 174 152 125 98 131 160 168 132 143 145 168 156 161 178 180 166 169 157 170 173 162 154 169 168 189 172 169 191 188 171 67 61
155 149 159 178 164 178 95 93 101 103 124 159 117 162 152 171 135 153 162 171 176 138 161 161 153 149 162 176 175 159 159 172 174 188 174 171 178 114 184 175 194 171 190
167 143 129 95 96 95 98 151 148 96 168 143 163 146 159 150 152 144 170 169 150 154 176 158 157 181 173 172 166 155 171 154 190 178 180 182 161 188 199 184 206 182 159
162 164 165 102 169 165 106 172 156 168 165 146 148 171 169 151 157 142 159 174 175 174 152 177 176 169 165 175 161 170 189 186 176 175 176 187 190 171 195 204 202 166 205
120 153 160 180 173 179 176 163 152 159 157 172 175 163 156 168 141 170 156 168 160 179 172 177 179 171 166 172 189 178 180 126 183 192 176 194 157 139 205 212 210 200 167
132 133 144 164 168 153 176 174 173 170 167 159 170 150 123 159 179 168 179 179 177 177 173 170 174 181 179 158 158 180 183 205 169 148 135 152 152 146 241 212 168 174 169
173 118 177 157 185 176 176 173 167 146 132 174 144 173 175 168 176 178 179 173 171 170 169 177 190 197 131 193 205 123 195 187 206 165 179 208 161 161 200 159 151 154 178
152 157 166 171 138 158 152 178 174 172 180 178 174 180 179 179 188 171 169 174 191 192 193 135 114 195 135 190 178 130 152 135 150 135 169 139 141 158 264 230 300 165 168
202 174 171 139 133 181 179 180 127 168 179 177 178 165 169 176 178 192 192 188 183 143 196 135 208 150 144 135 153 137 145 142 161 269 146 158 249 181 259 182 187 434 427
196 195 165 182 170 163 180 165 180 182 180 189 169 176 173 188 192 194 192 182 146 211 141 144 219 131 144 189 148 150 179 124 193 142 195 187 244 424 421 264 383 420 375
199 189 195 154 180 135 189 183 190 172 178 176 186 190 187 199 181 173 203 188 207 193 126 140 138 136 144 214 131 140 222 360 358 353 412 400 394 394 376 396 402 409 414
157 176 187 187 180 176 168 188 183 170 190 185 146 127 167 148 209 210 206 165 174 131 144 149 148 139 154 312 143 268 419 405 403 404 402 397 392 392 393 394 395 404 406
181 199 199 177 167 169 172 172 190 180 162 172 161 124 143 121 168 139 153 225 179 135 130 131 226 247 390 242 404 400 287 396 392 392 390 333 378 379 383 386 392 395 379
163 193 199 180 199 196 195 183 143 174 181 202 207 144 146 182 133 164 213 158 202 235 155 232 248 347 418 402 395 394 393 393 391 397 395 379 382 384 334 365 346 320 315
196 183 160 190 191 149 181 200 200 108 157 222 126 171 129 188 204 216 255 187 280 288 254 374 437 422 407 396 392 393 400 393 395 389 389 386 318 296 291 303 386 388 390
208 188 130 95 207 154 173 155 95 148 144 128 170 189 193 182 205 200 266 285 214 337 441 432 413 398 393 389 386 387 384 389 381 372 366 361 365 374 385 384 377 374 375
180 162 134 166 158 132 137 234 189 116 210 192 156 211 228 189 220 223 217 336 407 435 415 404 397 390 385 377 369 365 365 370 420 441 440 433 371 364 368 371 369 367 374
191 183 125 170 164 177 118 150 193 92 203 211 195 188 200 246 278 302 327 345 424 415 404 397 386 368 360 326 195 365 540 532 525 523 514 504 497 450 361 358 356 351 354
135 152 128 210 197 166 174 182 210 187 180 228 190 175 261 236 255 324 334 421 411 403 388 373 369 368 183 191 425 415 495 489 482 475 469 468 468 472 359 349 345 342 338
132 123 168 175 185 192 203 180 187 219 217 238 155 232 266 285 310 346 415 410 398 381 370 368 372 178 190 415 396 450 448 440 439 440 439 438 442 447 367 343 337 331 328
224 171 191 193 169 196 192 188 173 214 153 182 264 281 287 289 363 403 405 399 379 366 367 384 180 189 406 406 375 423 415 412 412 408 410 416 424 431 422 343 333 327 324
195 198 167 177 186 200 207 116 129 237 246 266 277 288 293 400 414 402 317 376 362 356 356 444 423 401 389 395 370 374 386 386 386 390 401 410 419 428 341 332 331 316 321
Wind_Speed
39 39 39 38 31 35 33 35 31 34 34 33 34 36 38 34 34 36 39 42 46 47 49 51 61 57 62 64 64 62 66 70 71 70 73 74 77 77 81 76 84 82 84
40 39 42 39 36 34 31 33 36 36 36 36 38 36 37 38 39 43 48 58 57 51 52 61 64 60 62 60 65 68 74 71 75 73 71 73 77 84 84 79 84 85 90
41 41 33 37 43 35 36 38 38 38 37 37 40 39 39 41 44 50 57 58 53 58 62 63 63 59 64 71 72 75 73 76 76 79 77 75 77 81 84 90 95 95 25
42 38 34 34 37 43 42 33 37 40 43 38 47 45 53 59 59 55 51 54 62 63 64 60 67 67 69 74 74 78 78 77 79 83 85 84 87 80 77 90 92 98 28
31 42 42 43 45 33 35 36 41 45 50 50 48 59 46 62 48 57 66 66 67 63 63 69 76 77 73 76 77 80 81 81 84 87 89 98 87 88 99 90 82 26 27
42 43 45 51 48 50 36 37 46 50 51 48 43 48 50 57 68 66 59 66 71 72 68 74 74 80 83 85 85 81 84 90 93 102 90 91 98 60 103 83 102 77 103
49 47 41 34 35 38 42 50 52 46 55 50 53 58 59 60 66 71 71 73 74 78 84 78 81 90 85 85 83 84 94 85 106 92 98 104 85 112 119 99 115 87 72
48 48 50 39 53 52 46 54 50 55 55 57 62 63 62 68 65 73 70 80 83 85 82 91 91 88 86 95 86 93 111 112 97 99 98 114 118 91 117 120 115 82 103
46 45 50 59 57 57 58 51 50 55 56 65 68 65 65 71 75 76 76 78 82 92 91 95 97 92 89 94 111 107 108 69 106 117 95 114 80 80 121 123 118 108 83
54 55 50 54 55 44 60 63 65 63 63 62 69 70 67 75 81 78 89 91 92 93 91 91 96 105 105 86 92 97 101 120 83 76 78 90 92 91 131 118 100 102 95
58 46 61 49 66 65 66 67 62 65 63 73 71 78 78 76 86 89 91 88 90 90 91 102 118 122 74 109 125 71 112 115 117 94 101 120 97 98 116 100 93 99 104
47 50 57 63 59 50 56 72 72 70 78 79 78 85 87 90 99 88 89 96 114 117 119 76 64 114 77 102 92 76 90 74 92 77 103 89 85 101 136 124 131 113 111
65 63 62 60 62 70 70 73 56 66 78 80 84 82 84 92 97 112 115 112 111 79 119 82 128 83 88 80 92 77 94 87 101 133 97 109 139 113 124 117 104 86 89
68 72 60 71 60 67 71 70 78 84 83 94 81 91 92 109 113 117 116 102 82 127 79 82 122 76 93 117 91 100 105 76 127 95 119 123 135 87 87 98 94 86 100
72 67 77 62 73 63 83 83 88 74 84 87 101 107 108 114 103 94 115 109 122 110 73 83 87 87 97 137 77 91 137 95 92 93 86 88 89 91 93 91 88 88 88
51 62 79 82 77 72 69 94 91 80 103 101 71 63 87 75 123 124 121 74 98 80 96 102 103 102 115 142 86 143 88 91 88 85 85 86 86 88 89 88 89 89 89
72 80 82 69 65 70 75 78 100 92 78 87 80 65 77 68 76 85 82 131 85 92 79 85 153 151 123 150 93 92 117 89 87 85 85 89 84 84 83 82 82 81 82
57 75 84 77 91 95 98 87 62 87 95 113 116 73 84 103 85 99 109 100 130 126 108 124 147 115 86 89 90 91 90 89 87 87 85 83 81 81 80 77 74 75 76
75 72 64 83 87 63 84 99 101 53 76 108 73 90 72 100 130 140 134 98 132 137 136 125 83 83 82 86 91 92 92 87 85 84 82 81 83 80 80 74 64 64 62
79 75 54 45 90 66 81 71 54 71 78 71 83 102 120 84 133 108 132 134 122 137 85 81 85 87 88 88 91 91 90 88 84 80 77 77 75 70 65 62 58 56 54
70 62 58 74 70 61 66 94 86 65 111 106 91 124 125 104 133 137 142 142 106 89 91 89 88 88 89 89 91 91 91 91 83 74 69 63 71 65 60 57 51 47 43
74 74 56 73 71 82 62 72 102 57 115 118 123 103 129 137 134 136 139 129 93 92 91 89 87 87 89 89 82 94 58 55 54 48 41 39 39 46 53 49 45 41 36
56 64 59 89 90 74 90 99 105 110 102 119 109 97 133 132 129 138 132 93 92 92 90 91 90 88 82 86 70 76 55 48 43 38 36 35 35 36 44 40 36 34 32
61 61 73 83 81 99 102 103 107 109 116 120 89 131 132 130 135 127 94 94 93 93 93 92 91 80 86 63 66 58 46 39 35 32 32 32 33 34 33 32 29 28 27
79 72 85 87 83 99 101 113 101 117 94 98 135 134 130 130 118 95 93 92 92 94 94 89 79 84 60 58 60 47 36 33 30 27 28 30 31 30 25 23 22 22 20
80 83 80 97 102 99 99 60 71 121 127 136 133 131 131 99 90 92 102 89 91 92 94 67 63 62 60 54 50 48 37 35 30 29 28 29 28 24 17 17 16 15 14
Wind_Direction
252 258 261 267 270 274 277 279 276 277 288 282 280 286 304 284 287 286 284 284 284 290 289 293 290 291 298 298 296 306 297 301 301 297 297 298 300 300 304 297 296 297 308
253 259 260 269 268 274 280 284 288 290 287 286 287 288 289 288 284 279 285 297 292 289 294 288 299 300 300 306 295 303 297 300 300 296 298 299 302 302 306 302 296 304 306
254 261 265 268 271 279 279 284 287 290 287 287 291 287 286 283 292 287 286 289 296 290 286 294 295 306 291 296 293 296 295 295 295 292 297 295 297 304 302 300 306 304 298
255 262 273 272 272 278 280 294 295 296 296 304 298 290 291 293 289 290 291 295 290 300 300 304 289 290 290 296 296 297 299 294 291 292 297 296 303 302 297 302 302 302 305
266 266 268 274 271 284 286 294 295 296 290 288 291 296 302 289 287 295 291 291 282 296 287 293 294 294 295 296 289 298 299 292 291 299 298 299 302 300 302 300 298 255 298
259 266 271 269 279 275 292 295 295 297 293 287 300 290 282 295 288 287 293 299 300 297 290 294 288 290 294 299 299 293 294 300 300 300 299 301 302 298 301 298 299 295 298
259 265 274 283 289 291 293 283 285 297 286 293 289 278 288 280 288 283 301 300 292 294 298 290 291 297 298 296 294 296 299 301 298 299 302 302 302 303 298 299 296 294 280
260 266 271 283 273 275 288 278 283 285 290 276 277 294 291 282 289 291 292 295 297 298 289 296 298 295 295 298 296 298 298 299 302 304 300 299 299 295 300 298 297 276 295
272 268 270 268 274 275 277 284 282 287 285 291 292 288 286 294 295 295 285 294 288 295 296 294 295 296 293 296 297 299 300 302 299 295 297 299 288 305 295 293 292 295 280
265 267 273 278 278 281 279 282 284 288 288 285 292 294 297 297 293 292 295 296 295 296 296 294 296 297 297 297 296 297 295 295 286 292 306 286 290 300 291 291 283 283 286
260 274 269 279 272 279 281 284 289 280 291 293 294 293 294 292 295 297 296 295 294 293 294 298 295 295 297 296 297 303 298 300 296 289 300 297 284 283 290 292 302 301 295
263 271 274 276 282 283 279 283 290 292 289 291 298 296 297 297 295 295 294 294 294 294 294 293 304 296 302 302 289 311 289 309 304 302 297 301 301 301 291 284 287 290 292
265 267 271 272 283 277 283 283 295 291 295 297 296 290 293 297 296 295 295 296 296 294 297 300 298 280 293 305 286 312 306 307 292 291 305 299 297 298 294 291 295 284 282
267 267 276 273 281 281 285 286 292 292 292 293 293 296 296 297 296 295 295 297 299 295 285 287 296 308 308 301 294 307 308 300 304 306 295 293 296 292 291 293 288 287 282
268 270 272 271 284 294 285 284 288 295 295 296 297 296 295 295 296 296 296 297 296 301 309 302 310 310 307 301 302 306 300 298 297 295 292 291 291 291 290 290 289 287 286
271 275 275 278 284 291 291 288 290 295 293 295 296 299 294 297 297 295 295 298 300 308 291 290 297 308 300 299 304 300 297 297 296 294 293 292 290 289 289 289 288 287 285
280 272 274 282 287 291 293 294 289 292 295 291 297 298 301 306 301 291 294 298 305 306 307 306 302 301 302 300 297 297 299 296 295 294 292 291 289 288 287 286 285 285 286
277 274 275 283 279 282 285 290 296 293 294 295 295 293 292 296 297 300 307 292 299 309 293 303 301 300 298 297 297 296 296 296 296 295 293 291 289 288 289 287 286 286 288
276 280 287 284 286 291 290 292 294 302 299 298 298 303 302 306 302 296 305 294 307 308 304 307 302 300 298 298 299 299 300 298 297 295 294 293 290 292 293 292 285 284 283
278 282 289 297 289 292 290 298 301 296 294 302 308 300 300 314 304 316 309 309 312 308 309 308 307 309 308 307 304 303 301 299 296 294 292 290 290 288 288 286 284 284 283
283 287 289 290 292 300 298 300 303 302 298 300 304 301 303 311 309 304 308 312 312 312 312 312 312 310 309 307 304 303 301 299 299 299 296 292 286 286 285 284 282 282 282
287 288 294 295 296 299 297 298 298 310 297 297 304 314 306 306 312 315 314 313 314 314 313 313 312 311 308 307 305 305 315 312 311 312 309 302 298 290 281 280 280 281 281
295 292 303 298 299 303 299 300 295 303 312 308 310 304 313 305 311 315 314 315 315 315 314 313 312 313 306 305 311 312 322 321 319 315 307 302 299 297 280 277 277 277 280
296 298 297 293 296 291 293 303 304 301 299 313 305 303 312 315 317 314 317 318 317 316 315 314 315 306 306 315 315 323 326 322 316 312 308 304 301 303 281 274 274 273 275
291 297 291 290 309 297 297 299 299 299 301 312 313 314 315 318 314 317 319 318 317 316 316 317 309 306 318 318 319 330 328 322 322 317 310 304 303 303 299 269 268 265 272
290 291 303 298 293 300 306 297 306 314 315 313 313 316 318 314 316 318 316 317 317 318 318 320 319 318 320 322 323 328 330 326 327 320 315 307 305 306 268 258 259 261 260